Hourly Data Report for May 20, 2022

TORONTO CITY
ONTARIO
Current Station Operator: ECCC - MSC

43°40'00.000" N
79°24'00.000" W
112.50 m
6158355
71508
XTO

Download Data

Hourly Data (May 2022)
Hourly Data Report for May 20, 2022
TIME
LST
Temp Definition
°C
Dew Point Definition
°C
Rel Hum Definition
%
Precip. Amount Definition
mm

Wind Dir Definition
10's deg

Wind Spd Definition
km/h
Visibility Definition
km
Stn Press Definition
kPa
Hmdx Definition


Wind Chill Definition


Weather Definition


00:00 12.8 9.8 82 0.0       99.19     LegendNANA
01:00 12.1 9.4 84 0.0       99.19     LegendNANA
02:00 11.7 9.2 85 0.0       99.14     LegendNANA
03:00 12.3 9.8 85 0.0       99.18     LegendNANA
04:00 12.4 10.0 85 0.0       99.21     LegendNANA
05:00 12.1 9.8 86 0.0       99.16     LegendNANA
06:00 12.4 9.8 84 0.0       99.15     LegendNANA
07:00 13.9 10.3 79 0.0       99.11     LegendNANA
08:00 14.6 10.5 77 0.0       99.21     LegendNANA
09:00 15.5 11.2 76 0.0       99.23     LegendNANA
10:00 17.1 12.6 75 0.0       99.14     LegendNANA
11:00 20.4 13.9 66 0.0       99.04     LegendNANA
12:00 20.7 14.6 68 0.0       99.08     LegendNANA
13:00 23.0 15.3 62 0.0       99.06 27   LegendNANA
14:00 22.8 14.4 59 0.0       99.10 26   LegendNANA
15:00 22.5 15.7 65 0.0       99.02 27   LegendNANA
16:00 20.8 16.3 76 0.0       99.08 26   LegendNANA
17:00 22.5 17.3 72 0.0       98.92 28   LegendNANA
18:00 22.0 17.2 74 0.0       99.04 27   LegendNANA
19:00 22.3 17.6 75 0.0       99.08 28   LegendNANA
20:00 21.9 17.5 76 0.0       99.16 28   LegendNANA
21:00 21.9 18.0 78 0.0       99.20 28   LegendNANA
22:00 21.2 18.2 83 0.0       99.19 27   LegendNANA
23:00 20.7 17.2 80 0.0       99.26 26   LegendNANA

Notes on Data Quality.

Legend

  • E = Estimated
  • M = Missing
  • NA = Not Available*
  • [empty] = Indicates an unobserved value
Date modified: